Starlink 30965

operational
NORAD ID: 58477 Int'l Des: 2023-186 Owner: SPXS Country: US Constellation: starlink
LEOCIRCULAR

关于 Starlink 30965

正在加载描述...

实时位置

正在加载3D地球...

即将过境

高度历史

Altitude vs Time

uPlot chart will show altitude changes over time

两行轨道根数

1 58477U 23186E 25259.06688304 .00000650 00000-0 63173-4 0 9994
2 58477 43.0041 283.3011 0001486 272.5437 87.5235 15.02539966 99736
Epoch: Sep 16, 2025 • Age: 16 hours

当前状态

高度 558.2 km
速度 7.58 km/s
星下点 10.51°N, 30.74°E
发射日期 Dec 3, 2023
运行时间 1.7 years
类型 internet

技术详情

分类 Payload
质量 730.00 kg
干质量 700.00 kg
总质量 730.00 kg
长度 0.30 m
直径 4.10 m
跨度 29.00 m
形状 Box + pan
制造商 SPXS
平台类型 Starlink V2M
阶段状态 In Orbit
所有者/国家 SPXS/US

大型星座

Loading constellations...